COSMOS 2545 (760)

Last updated on Tue Jan 14 2025 00:03:10 GMT+0000 (Coordinated Universal Time)

1 45358U 20018A 25013.28454388 -.00000083 00000+0 00000+0 0 9999 2 45358 64.6508 330.6351 0010801 255.3436 104.5267 2.13102465 37587
UTC large
Height (km)
Speed (km/s)
/
Latitude / Longitude
Inclination (degrees)
Orbital Period (minutes)
Azimuth
Elevation
Range (km)
Doppler Factor

Next 0 passes for location: London (51.5072 / 0.1276)

Sorry there are no passes over London.